GW1801 Weather Reports


time (UTC)temp
C
wind
direction
speed
KPH
gust
KPH
rain 1hr
cm
rain 24hr
cm
rain mn
cm
humidity
%
barometer
mb
20260906121530 19 46 0.0 0.0 0.00 0.00 0.00 94 1020.4
20260906120036 19 42 0.0 0.0 0.00 0.00 0.00 94 1020.1
20260906114525 18 42 0.0 0.0 0.00 0.00 0.00 94 1019.7
20260906113019 18 42 0.0 0.0 0.00 0.00 0.00 94 1019.4
20260906111528 18 42 0.0 0.0 0.00 0.00 0.00 94 1019.5
20260906110020 19 42 0.0 0.0 0.00 0.00 0.00 94 1019.4
20260906104518 19 42 0.0 0.0 0.00 0.00 0.00 94 1019.3
20260906103021 19 42 0.0 0.0 0.00 0.00 0.00 94 1019.3
20260906101525 19 42 0.0 0.0 0.00 0.00 0.00 94 1019.0
20260906100031 19 42 0.0 0.0 0.00 0.00 0.00 94 1018.9
20260906094524 19 42 0.0 0.0 0.00 0.00 0.00 94 1018.9
20260906093019 19 42 0.0 0.0 0.00 0.00 0.00 93 1018.9
20260906091527 19 42 0.0 0.0 0.00 0.00 0.00 93 1018.6
20260906090030 19 42 0.0 0.0 0.00 0.00 0.00 93 1018.7
20260906084538 19 22 0.0 0.0 0.00 0.00 0.00 93 1018.7
20260906083015 19 21 0.0 0.0 0.00 0.00 0.00 93 1018.7
20260906081537 19 19 0.0 0.0 0.00 0.00 0.00 92 1018.6
20260906080025 19 19 0.0 0.0 0.00 0.00 0.00 92 1018.6
20260906074533 20 19 0.0 0.0 0.00 0.00 0.00 92 1018.6
20260906073010 20 19 0.0 0.0 0.00 0.00 0.00 92 1018.7
20260906071516 20 19 0.0 0.0 0.00 0.00 0.00 92 1018.6
20260906070025 20 19 0.0 0.0 0.00 0.00 0.00 92 1018.8
20260906064530 20 19 0.0 0.0 0.00 0.00 0.00 92 1018.8
20260906063034 20 49 0.0 0.0 0.00 0.00 0.00 92 1018.8
20260906061519 20 49 0.0 0.0 0.00 0.00 0.00 91 1018.8
20260906060023 21 49 0.0 0.0 0.00 0.00 0.00 91 1018.8
20260906054525 21 49 0.0 0.0 0.00 0.00 0.00 91 1018.9
20260906053030 21 49 0.0 0.0 0.00 0.00 0.00 90 1018.8
20260906051530 21 49 0.0 0.0 0.00 0.00 0.00 90 1018.5
20260906050019 21 49 0.0 0.0 0.00 0.00 0.00 91 1018.6
20260906044528 21 49 0.0 0.0 0.00 0.00 0.00 91 1018.4
20260906043030 21 49 0.0 0.0 0.00 0.00 0.00 91 1018.3
20260906041538 21 49 0.0 0.0 0.00 0.00 0.00 90 1018.1
20260906040038 21 43 0.0 0.0 0.00 0.00 0.00 90 1018.0
20260906034521 21 43 0.0 0.0 0.00 0.00 0.00 90 1017.8
20260906033027 21 40 0.0 0.0 0.00 0.00 0.00 89 1017.9
20260906031544 21 40 0.0 9.7 0.00 0.03 0.00 89 1017.9
20260906030008 21 53 0.0 0.0 0.00 0.03 0.00 88 1018.0
20260906024514 21 39 0.0 9.7 0.00 0.23 0.00 88 1017.9
20260906023020 21 48 0.0 4.8 0.00 0.23 0.00 87 1017.7
20260906021526 21 53 0.0 0.0 0.00 0.23 0.00 87 1017.7
20260906020048 22 53 0.0 0.0 0.00 0.23 0.00 87 1017.8
20260906014509 22 53 0.0 0.0 0.00 0.23 0.00 87 1017.8
20260906013016 22 50 0.0 9.7 0.00 0.23 0.00 87 1017.8
20260906011523 22 30 0.0 8.0 0.00 0.23 0.00 87 1017.9
20260906010030 22 44 0.0 9.7 0.00 0.23 0.00 87 1017.7
20260906004532 22 57 0.0 6.4 0.00 0.23 0.00 87 1017.5
20260906003022 22 50 0.0 6.4 0.00 0.23 0.00 86 1017.5
20260906001519 22 46 0.0 14.5 0.00 0.23 0.00 86 1017.5
20260906000026 22 70 0.0 6.4 0.00 0.23 0.00 86 1017.2
20260905234534 22 55 0.0 9.7 0.00 0.23 0.00 86 1017.2
20260905233033 22 31 3.2 16.1 0.00 0.23 0.00 85 1017.3
20260905231516 22 37 1.6 17.7 0.00 0.23 0.00 85 1017.2
20260905230026 23 74 0.0 16.1 0.00 0.23 0.00 83 1017.0
20260905224530 25 51 3.2 11.3 0.00 0.23 0.00 79 1016.7
20260905223039 25 43 1.6 9.7 0.00 0.23 0.00 78 1016.6
20260905221533 26 78 1.6 14.5 0.00 0.23 0.00 76 1016.7
20260905220026 26 36 0.0 11.3 0.00 0.23 0.00 76 1016.6
20260905214527 26 69 0.0 9.7 0.00 0.23 0.00 75 1016.4
20260905213034 26 44 0.0 9.7 0.00 0.23 0.00 78 1016.2
20260905211542 26 41 0.0 16.1 0.00 0.23 0.00 78 1016.0
20260905210019 27 42 0.0 9.7 0.00 0.23 0.00 75 1016.0
20260905204527 27 37 0.0 9.7 0.00 0.23 0.00 72 1016.0
20260905203032 27 42 0.0 9.7 0.00 0.23 0.00 74 1016.1
20260905201537 26 36 1.6 8.0 0.00 0.23 0.00 75 1016.0
20260905200049 26 41 0.0 3.2 0.00 0.23 0.00 78 1016.1
20260905194524 26 41 0.0 6.4 0.00 0.23 0.00 79 1016.4
20260905193027 26 40 0.0 4.8 0.00 0.23 0.00 80 1016.7
20260905191534 25 43 0.0 0.0 0.00 0.23 0.00 83 1016.7
20260905190031 25 43 0.0 3.2 0.00 0.23 0.00 84 1016.9
20260905184536 25 42 0.0 8.0 0.00 0.23 0.00 84 1016.8
20260905183027 25 44 0.0 6.4 0.00 0.23 0.00 83 1016.8
20260905181503 25 44 0.0 0.0 0.00 0.23 0.00 83 1016.9
20260905180010 24 44 0.0 6.4 0.00 0.23 0.00 85 1016.8
20260905174515 24 44 0.0 0.0 0.00 0.23 0.00 85 1016.7
20260905173019 24 44 1.6 6.4 0.00 0.23 0.00 85 1016.7
20260905171538 23 43 0.0 9.7 0.00 0.23 0.00 86 1016.8
20260905170007 23 56 0.0 6.4 0.00 0.25 0.00 86 1017.0
20260905164511 24 38 3.2 8.0 0.00 0.25 0.00 86 1017.2
20260905163020 24 49 1.6 9.7 0.00 0.25 0.00 86 1017.0
20260905161537 24 43 4.8 9.7 0.00 0.25 0.00 86 1017.0
20260905160042 24 59 0.0 9.7 0.00 0.25 0.00 87 1016.9
20260905154508 23 53 0.0 0.0 0.00 0.25 0.00 87 1016.7
20260905153016 24 62 3.2 8.0 0.00 0.25 0.00 87 1016.6
20260905151522 24 61 0.0 9.7 0.00 0.25 0.00 87 1016.5
20260905150027 24 50 3.2 9.7 0.00 0.25 0.00 87 1016.3
20260905144507 23 53 0.0 8.0 0.00 0.25 0.00 90 1016.2
20260905143013 23 50 0.0 0.0 0.00 0.25 0.00 91 1016.0
20260905141522 23 50 1.6 8.0 0.00 0.25 0.00 91 1016.3
20260905140030 23 54 1.6 8.0 0.00 0.25 0.00 92 1016.3
20260905134530 23 69 0.0 0.0 0.00 0.25 0.00 93 1016.1
20260905133009 23 69 0.0 0.0 0.00 0.25 0.00 94 1016.1
20260905131515 22 69 0.0 0.0 0.00 0.25 0.00 94 1016.5
20260905130024 22 69 0.0 0.0 0.00 0.25 0.00 94 1015.9
20260905124540 22 69 0.0 0.0 0.00 0.25 0.00 95 1015.8
20260905123031 22 69 1.6 8.0 0.00 0.25 0.00 94 1015.6